Flag for Switzerland Weather past 2 weeks in Yverdon-les-Bains, Vaud, Switzerland

Now
36 °F

Overcast.


Feels Like: 33 °F
Forecast: 26 / 43 °F
Wind: 3 mph from Northeast

Location: Payerne

Current Time: Feb 28, 2015 at 1:49:46 AM

Latest Report: Feb 28, 2015 at 1:00 AM


Visibility: 13 mi

Pressure: 30.21 "Hg

Humidity: 78%

Dew point: 30 °F

Location of Yverdon-les-BainsLocation

Historic Weather in Yverdon-les-Bains — Graph

°F

Yverdon-les-Bains temperature yesterday

Maximum temperature yesterday: 40 °F (at 3:00 PM)
Minimum temperature yesterday: 35 °F (at 8:00 AM)
Average temperature yesterday: 38 °F

Past Weeks' High & Low Weather Summary

 TemperatureHumidityPressure
High51 °F (Feb 20, 2:00 PM)100% (Feb 13, 12:00 AM)30.71 "Hg (Feb 13, 12:00 AM)
Low22 °F (Feb 13, 7:00 AM)28% (Feb 20, 3:00 PM)29.61 "Hg (Feb 21, 9:00 AM)
Average35 °F85%30.09 "Hg
* Reported Midnight between Feb 12 and Feb 13 — Midnight between Feb 27 and Feb 28, Yverdon-les-Bains, Weather by CustomWeather, © 2015

Note: Actual official high and low records may vary slightly from our data, if they occured in-between our weather recording intervals... More about our weather records

Advertising

Yverdon-les-Bains weather history for previous 24 hours

 ConditionsComfort  
Time TempWeatherWind HumidityBarometerVisibility
12:00 AM
Sat, Feb 28
36 °FChilly.1 mph77%30.22 "HgN/A
11:00 PM
Fri, Feb 27
36 °FChilly.1 mph77%30.21 "HgN/A
9:00 PM36 °FChilly.3 mph85%30.19 "HgN/A
8:00 PM36 °FChilly.2 mph91%30.19 "HgN/A
7:00 PM38 °FFog.1 mph82%30.16 "Hg9 mi
6:00 PM39 °FChilly.2 mph84%30.13 "HgN/A
5:00 PM40 °FChilly.3 mph79%30.09 "HgN/A
4:00 PM39 °FChilly.7 mph83%30.07 "HgN/A
3:00 PM40 °FQuite cool.7 mph80%30.04 "HgN/A
2:00 PM40 °FChilly.7 mph87%30.02 "HgN/A
1:00 PM40 °FLight rain. Overcast.9 mph88%30.01 "Hg11 mi
12:00 PM39 °FChilly.8 mph90%29.98 "HgN/A
11:00 AM38 °FChilly.12 mph89%29.95 "HgN/A
10:00 AM37 °FLight rain. Overcast.12 mph91%29.92 "Hg4 mi
9:00 AM36 °FChilly.6 mph92%29.90 "HgN/A
8:00 AM35 °FChilly.3 mph91%29.89 "HgN/A
7:00 AM36 °FLight rain. Overcast.7 mph84%29.88 "Hg3 mi
6:00 AM37 °FChilly.2 mph75%29.88 "HgN/A
5:00 AM36 °FChilly.No wind84%29.88 "HgN/A
3:00 AM37 °FChilly.1 mph75%29.92 "HgN/A
2:00 AM37 °FChilly.No wind74%29.94 "HgN/A
1:00 AM38 °FOvercast.3 mph62%29.95 "Hg15 mi
Weather by CustomWeather, © 2015

See weather overviewHow to use our weather pages